| time (UTC) | temp F | wind direction | speed knots | gust knots | rain 1hr in | rain 24hr in | rain mn in | humidity % | barometer mb |
| 20260905163025 | 60 | 225 | 2.6 | 16.5 | 0.00 | 0.02 | 0.01 | 73 | 1009.2 |
| 20260905162523 | 60 | 281 | 3.5 | 16.5 | 0.00 | 0.02 | 0.01 | 74 | 1009.0 |
| 20260905162123 | 60 | 247 | 4.3 | 17.4 | 0.00 | 0.02 | 0.01 | 73 | 1009.1 |
| 20260905161525 | 61 | 331 | 6.1 | 17.4 | 0.00 | 0.02 | 0.01 | 72 | 1009.0 |
| 20260905161025 | 61 | 313 | 3.5 | 14.8 | 0.00 | 0.02 | 0.01 | 72 | 1008.9 |
| 20260905160521 | 61 | 69 | 5.2 | 13.0 | 0.00 | 0.02 | 0.01 | 71 | 1008.8 |
| 20260905160034 | 61 | 239 | 4.3 | 12.2 | 0.00 | 0.02 | 0.01 | 71 | 1008.9 |
| 20260905155524 | 61 | 279 | 3.5 | 20.9 | 0.00 | 0.02 | 0.01 | 70 | 1008.7 |
| 20260905155020 | 61 | 254 | 3.5 | 20.9 | 0.00 | 0.02 | 0.01 | 70 | 1008.8 |
| 20260905154520 | 62 | 190 | 3.5 | 16.5 | 0.00 | 0.02 | 0.01 | 69 | 1008.5 |
| 20260905154021 | 62 | 254 | 6.1 | 16.5 | 0.00 | 0.02 | 0.01 | 69 | 1008.6 |
| 20260905153519 | 62 | 84 | 4.3 | 17.4 | 0.00 | 0.02 | 0.01 | 69 | 1008.4 |
| 20260905153022 | 62 | 284 | 6.1 | 17.4 | 0.00 | 0.02 | 0.01 | 68 | 1008.4 |
| 20260905152517 | 62 | 305 | 2.6 | 11.3 | 0.00 | 0.02 | 0.01 | 69 | 1008.4 |
| 20260905152018 | 62 | 213 | 2.6 | 15.6 | 0.00 | 0.02 | 0.01 | 68 | 1008.4 |
| 20260905151516 | 62 | 336 | 4.3 | 13.0 | 0.00 | 0.02 | 0.01 | 67 | 1008.3 |
| 20260905151016 | 63 | 242 | 5.2 | 13.0 | 0.00 | 0.02 | 0.01 | 67 | 1008.2 |
| 20260905150514 | 63 | 279 | 5.2 | 13.0 | 0.00 | 0.02 | 0.01 | 68 | 1008.2 |
| 20260905150014 | 62 | 300 | 3.5 | 12.2 | 0.00 | 0.02 | 0.01 | 68 | 1008.2 |
| 20260905145519 | 62 | 291 | 5.2 | 12.2 | 0.00 | 0.02 | 0.01 | 68 | 1008.1 |
| 20260905145114 | 63 | 271 | 3.5 | 12.2 | 0.00 | 0.02 | 0.01 | 70 | 1008.2 |
| 20260905144524 | 63 | 280 | 3.5 | 13.9 | 0.00 | 0.02 | 0.01 | 69 | 1008.0 |
| 20260905144018 | 63 | 220 | 3.5 | 14.8 | 0.00 | 0.02 | 0.01 | 70 | 1008.0 |
| 20260905143516 | 63 | 182 | 3.5 | 14.8 | 0.00 | 0.02 | 0.01 | 69 | 1008.0 |
| 20260905143013 | 63 | 217 | 4.3 | 17.4 | 0.00 | 0.02 | 0.01 | 69 | 1008.0 |
| 20260905142514 | 63 | 273 | 5.2 | 17.4 | 0.00 | 0.02 | 0.01 | 70 | 1008.2 |
| 20260905142012 | 63 | 209 | 3.5 | 17.4 | 0.00 | 0.02 | 0.01 | 70 | 1008.1 |
| 20260905141514 | 63 | 297 | 5.2 | 17.4 | 0.00 | 0.02 | 0.01 | 69 | 1008.0 |
| 20260905141011 | 64 | 195 | 4.3 | 14.8 | 0.00 | 0.02 | 0.01 | 66 | 1007.9 |
| 20260905140512 | 65 | 170 | 1.7 | 10.4 | 0.00 | 0.02 | 0.01 | 67 | 1007.7 |
| 20260905140018 | 65 | 105 | 2.6 | 10.4 | 0.00 | 0.02 | 0.01 | 66 | 1007.7 |
| 20260905135509 | 65 | 279 | 5.2 | 11.3 | 0.00 | 0.02 | 0.01 | 65 | 1007.6 |
| 20260905135009 | 65 | 227 | 5.2 | 12.2 | 0.00 | 0.02 | 0.01 | 65 | 1007.6 |
| 20260905134508 | 65 | 329 | 2.6 | 14.8 | 0.00 | 0.02 | 0.01 | 67 | 1007.5 |
| 20260905134008 | 65 | 232 | 3.5 | 14.8 | 0.00 | 0.02 | 0.01 | 64 | 1007.5 |
| 20260905133507 | 66 | 277 | 4.3 | 17.4 | 0.00 | 0.02 | 0.01 | 65 | 1007.6 |
| 20260905133008 | 66 | 301 | 4.3 | 17.4 | 0.00 | 0.02 | 0.01 | 65 | 1007.3 |
| 20260905132504 | 65 | 273 | 5.2 | 13.9 | 0.00 | 0.02 | 0.01 | 66 | 1007.2 |
| 20260905132003 | 65 | 194 | 6.1 | 13.9 | 0.00 | 0.02 | 0.01 | 66 | 1007.3 |
| 20260905131502 | 65 | 180 | 5.2 | 13.9 | 0.00 | 0.02 | 0.01 | 68 | 1007.3 |
| 20260905131002 | 65 | 273 | 5.2 | 11.3 | 0.01 | 0.02 | 0.01 | 67 | 1007.3 |
| 20260905130503 | 65 | 334 | 2.6 | 13.9 | 0.01 | 0.02 | 0.01 | 69 | 1007.2 |
| 20260905130101 | 64 | 300 | 3.5 | 13.9 | 0.01 | 0.02 | 0.01 | 71 | 1007.2 |
| 20260905125602 | 64 | 256 | 1.7 | 11.3 | 0.01 | 0.02 | 0.01 | 71 | 1007.1 |
| 20260905125100 | 64 | 309 | 4.3 | 11.3 | 0.01 | 0.02 | 0.01 | 72 | 1007.2 |
| 20260905124600 | 63 | 289 | 2.6 | 13.0 | 0.01 | 0.02 | 0.01 | 76 | 1007.1 |
| 20260905124058 | 62 | 188 | 1.7 | 13.0 | 0.01 | 0.02 | 0.01 | 77 | 1007.1 |
| 20260905123558 | 62 | 298 | 4.3 | 13.0 | 0.01 | 0.02 | 0.01 | 78 | 1007.2 |
| 20260905123104 | 61 | 292 | 4.3 | 13.0 | 0.01 | 0.02 | 0.01 | 81 | 1007.3 |
| 20260905122557 | 61 | 308 | 2.6 | 10.4 | 0.01 | 0.02 | 0.01 | 83 | 1007.2 |
| 20260905122100 | 62 | 176 | 3.5 | 13.9 | 0.01 | 0.02 | 0.01 | 79 | 1007.2 |
| 20260905121600 | 63 | 227 | 4.3 | 13.9 | 0.01 | 0.02 | 0.01 | 73 | 1007.2 |
| 20260905121100 | 65 | 297 | 3.5 | 15.6 | 0.01 | 0.02 | 0.01 | 70 | 1007.1 |
| 20260905120555 | 64 | 209 | 2.6 | 13.0 | 0.00 | 0.02 | 0.00 | 71 | 1006.9 |
| 20260905120106 | 64 | 190 | 3.5 | 13.0 | 0.00 | 0.02 | 0.00 | 70 | 1006.8 |
| 20260905115554 | 64 | 258 | 2.6 | 14.8 | 0.00 | 0.02 | 0.00 | 71 | 1006.7 |
| 20260905115157 | 63 | 229 | 3.5 | 14.8 | 0.00 | 0.02 | 0.00 | 71 | 1006.6 |
| 20260905114607 | 63 | 293 | 4.3 | 13.9 | 0.00 | 0.02 | 0.00 | 73 | 1006.6 |
| 20260905114054 | 63 | 270 | 4.3 | 13.9 | 0.00 | 0.02 | 0.00 | 71 | 1006.7 |
| 20260905113553 | 64 | 290 | 3.5 | 10.4 | 0.00 | 0.02 | 0.00 | 72 | 1006.6 |
| 20260905113057 | 64 | 305 | 2.6 | 13.0 | 0.00 | 0.02 | 0.00 | 72 | 1006.6 |
| 20260905112550 | 63 | 264 | 3.5 | 10.4 | 0.00 | 0.02 | 0.00 | 73 | 1006.7 |
| 20260905112049 | 63 | 288 | 3.5 | 13.9 | 0.00 | 0.02 | 0.00 | 75 | 1006.5 |
| 20260905111634 | 62 | 227 | 2.6 | 13.9 | 0.00 | 0.02 | 0.00 | 77 | 1006.6 |
| 20260905111047 | 62 | 41 | 4.3 | 14.8 | 0.00 | 0.02 | 0.00 | 79 | 1006.5 |
| 20260905110545 | 61 | 161 | 4.3 | 14.8 | 0.00 | 0.02 | 0.00 | 79 | 1006.5 |
| 20260905110045 | 61 | 140 | 4.3 | 10.4 | 0.00 | 0.02 | 0.00 | 78 | 1006.4 |
| 20260905105546 | 61 | 234 | 3.5 | 10.4 | 0.00 | 0.02 | 0.00 | 78 | 1006.4 |
| 20260905105045 | 61 | 195 | 3.5 | 8.7 | 0.00 | 0.02 | 0.00 | 78 | 1006.4 |
| 20260905104544 | 61 | 198 | 2.6 | 8.7 | 0.00 | 0.02 | 0.00 | 76 | 1006.2 |
| 20260905104043 | 62 | 257 | 2.6 | 7.8 | 0.00 | 0.02 | 0.00 | 77 | 1006.2 |
| 20260905103544 | 61 | 251 | 1.7 | 13.9 | 0.00 | 0.02 | 0.00 | 77 | 1006.2 |
| 20260905103043 | 61 | 141 | 3.5 | 13.9 | 0.00 | 0.02 | 0.00 | 77 | 1006.2 |
| 20260905102547 | 61 | 200 | 4.3 | 11.3 | 0.00 | 0.02 | 0.00 | 76 | 1006.1 |
| 20260905102142 | 61 | 98 | 2.6 | 11.3 | 0.00 | 0.02 | 0.00 | 76 | 1006.1 |
| 20260905101543 | 62 | 61 | 3.5 | 11.3 | 0.00 | 0.02 | 0.00 | 76 | 1006.1 |
| 20260905101040 | 62 | 135 | 3.5 | 10.4 | 0.00 | 0.02 | 0.00 | 77 | 1006.0 |
| 20260905100540 | 61 | 196 | 3.5 | 13.0 | 0.00 | 0.02 | 0.00 | 77 | 1006.0 |
| 20260905100040 | 61 | 179 | 5.2 | 13.0 | 0.00 | 0.02 | 0.00 | 78 | 1005.9 |
| 20260905095539 | 61 | 57 | 3.5 | 12.2 | 0.00 | 0.02 | 0.00 | 78 | 1006.0 |
| 20260905095038 | 61 | 285 | 3.5 | 10.4 | 0.00 | 0.02 | 0.00 | 78 | 1005.9 |
| 20260905094539 | 62 | 294 | 3.5 | 13.0 | 0.00 | 0.02 | 0.00 | 77 | 1005.9 |
| 20260905094040 | 62 | 220 | 4.3 | 13.0 | 0.00 | 0.02 | 0.00 | 76 | 1005.8 |
| 20260905093537 | 62 | 257 | 2.6 | 9.6 | 0.00 | 0.02 | 0.00 | 78 | 1005.8 |
| 20260905093041 | 62 | 273 | 3.5 | 11.3 | 0.00 | 0.02 | 0.00 | 77 | 1005.7 |
| 20260905092534 | 62 | 237 | 4.3 | 11.3 | 0.00 | 0.02 | 0.00 | 78 | 1005.8 |
| 20260905092034 | 62 | 173 | 1.7 | 11.3 | 0.00 | 0.02 | 0.00 | 78 | 1005.8 |
| 20260905091534 | 62 | 250 | 3.5 | 10.4 | 0.00 | 0.02 | 0.00 | 80 | 1005.7 |
| 20260905091032 | 61 | 341 | 2.6 | 9.6 | 0.00 | 0.02 | 0.00 | 81 | 1005.7 |
| 20260905090531 | 61 | 338 | 3.5 | 9.6 | 0.00 | 0.02 | 0.00 | 81 | 1005.8 |
| 20260905090030 | 60 | 294 | 2.6 | 9.6 | 0.00 | 0.02 | 0.00 | 82 | 1005.7 |
| 20260905085530 | 60 | 290 | 3.5 | 9.6 | 0.00 | 0.02 | 0.00 | 80 | 1005.7 |
| 20260905085028 | 60 | 298 | 2.6 | 8.7 | 0.00 | 0.02 | 0.00 | 82 | 1005.6 |
| 20260905084527 | 59 | 268 | 1.7 | 17.4 | 0.00 | 0.02 | 0.00 | 85 | 1005.5 |
| 20260905084026 | 59 | 9 | 2.6 | 17.4 | 0.00 | 0.02 | 0.00 | 85 | 1005.6 |
| 20260905083529 | 59 | 257 | 3.5 | 9.6 | 0.00 | 0.02 | 0.00 | 85 | 1005.5 |
| 20260905083024 | 59 | 261 | 1.7 | 6.1 | 0.00 | 0.02 | 0.00 | 85 | 1005.5 |
| 20260905082523 | 59 | 251 | 1.7 | 6.1 | 0.00 | 0.02 | 0.00 | 85 | 1005.4 |
| 20260905082023 | 59 | 178 | 2.6 | 8.7 | 0.00 | 0.02 | 0.00 | 86 | 1005.4 |
| 20260905081522 | 59 | 208 | 2.6 | 9.6 | 0.00 | 0.02 | 0.00 | 86 | 1005.4 |
| 20260905081021 | 59 | 182 | 3.5 | 9.6 | 0.00 | 0.02 | 0.00 | 86 | 1005.3 |
| 20260905080521 | 59 | 301 | 1.7 | 8.7 | 0.00 | 0.02 | 0.00 | 87 | 1005.2 |
| 20260905080028 | 58 | 273 | 2.6 | 11.3 | 0.00 | 0.02 | 0.00 | 87 | 1005.2 |
| 20260905075518 | 58 | 223 | 2.6 | 9.6 | 0.00 | 0.02 | 0.00 | 88 | 1005.2 |
| 20260905075018 | 58 | 293 | 2.6 | 9.6 | 0.00 | 0.02 | 0.00 | 88 | 1005.1 |
| 20260905074516 | 58 | 214 | 2.6 | 9.6 | 0.00 | 0.02 | 0.00 | 88 | 1005.1 |
| 20260905074014 | 58 | 270 | 2.6 | 9.6 | 0.00 | 0.02 | 0.00 | 89 | 1005.0 |
| 20260905073514 | 58 | 306 | 1.7 | 8.7 | 0.00 | 0.02 | 0.00 | 90 | 1004.9 |
| 20260905073013 | 57 | 313 | 2.6 | 7.8 | 0.00 | 0.02 | 0.00 | 90 | 1004.9 |
| 20260905072511 | 57 | 245 | 2.6 | 8.7 | 0.00 | 0.02 | 0.00 | 90 | 1004.9 |
| 20260905072010 | 57 | 290 | 0.9 | 8.7 | 0.00 | 0.02 | 0.00 | 91 | 1004.9 |
| 20260905071509 | 56 | 266 | 2.6 | 8.7 | 0.00 | 0.02 | 0.00 | 92 | 1004.9 |
| 20260905071011 | 56 | 287 | 1.7 | 8.7 | 0.00 | 0.02 | 0.00 | 92 | 1005.0 |
| 20260905070508 | 56 | 285 | 2.6 | 8.7 | 0.00 | 0.02 | 0.00 | 92 | 1004.8 |
| 20260905070019 | 56 | 39 | 0.9 | 7.0 | 0.00 | 0.02 | 0.00 | 92 | 1004.9 |
| 20260905065508 | 56 | 331 | 2.6 | 7.0 | 0.00 | 0.02 | 0.00 | 92 | 1004.8 |
| 20260905065010 | 56 | 166 | 0.9 | 7.0 | 0.00 | 0.02 | 0.00 | 92 | 1004.8 |
| 20260905064520 | 56 | 184 | 1.7 | 7.0 | 0.00 | 0.02 | 0.00 | 93 | 1004.8 |
| 20260905064005 | 56 | 266 | 1.7 | 9.6 | 0.00 | 0.02 | 0.00 | 93 | 1004.7 |
| 20260905063504 | 56 | 268 | 2.6 | 9.6 | 0.00 | 0.02 | 0.00 | 94 | 1004.7 |
| 20260905063004 | 55 | 215 | 0.9 | 7.0 | 0.00 | 0.02 | 0.00 | 94 | 1004.7 |
| 20260905062504 | 55 | 276 | 2.6 | 7.0 | 0.00 | 0.02 | 0.00 | 94 | 1004.7 |
| 20260905062000 | 55 | 281 | 1.7 | 7.0 | 0.00 | 0.02 | 0.00 | 95 | 1004.6 |
| 20260905061601 | 55 | 228 | 1.7 | 6.1 | 0.00 | 0.02 | 0.00 | 95 | 1004.7 |
| 20260905061058 | 55 | 257 | 1.7 | 6.1 | 0.00 | 0.02 | 0.00 | 95 | 1004.6 |
| 20260905060557 | 54 | 204 | 1.7 | 5.2 | 0.00 | 0.02 | 0.00 | 96 | 1004.6 |
| 20260905060058 | 54 | 194 | 1.7 | 4.3 | 0.00 | 0.02 | 0.00 | 95 | 1004.5 |
| 20260905055558 | 54 | 9 | 0.9 | 6.1 | 0.00 | 0.02 | 0.00 | 96 | 1004.5 |
| 20260905055057 | 53 | 336 | 0.9 | 6.1 | 0.00 | 0.02 | 0.00 | 95 | 1004.5 |
| 20260905054556 | 53 | 311 | 0.9 | 5.2 | 0.00 | 0.02 | 0.00 | 95 | 1004.4 |
| 20260905054056 | 53 | 281 | 0.9 | 6.1 | 0.00 | 0.02 | 0.00 | 95 | 1004.5 |
| 20260905053553 | 53 | 187 | 0.9 | 4.3 | 0.00 | 0.02 | 0.00 | 96 | 1004.4 |
| 20260905053053 | 53 | 254 | 1.7 | 4.3 | 0.00 | 0.02 | 0.00 | 96 | 1004.3 |
| 20260905052551 | 53 | 263 | 1.7 | 6.1 | 0.00 | 0.02 | 0.00 | 96 | 1004.3 |
| 20260905052051 | 53 | 140 | 1.7 | 8.7 | 0.00 | 0.02 | 0.00 | 96 | 1004.3 |
| 20260905051550 | 53 | 273 | 2.6 | 8.7 | 0.00 | 0.02 | 0.00 | 96 | 1004.2 |
| 20260905051049 | 53 | 311 | 2.6 | 7.0 | 0.00 | 0.02 | 0.00 | 96 | 1004.1 |
| 20260905050548 | 53 | 183 | 0.9 | 5.2 | 0.00 | 0.02 | 0.00 | 96 | 1004.1 |
| 20260905050054 | 53 | 299 | 1.7 | 5.2 | 0.00 | 0.02 | 0.00 | 96 | 1004.0 |
| 20260905045545 | 52 | 226 | 0.9 | 6.1 | 0.00 | 0.02 | 0.00 | 96 | 1004.1 |
| 20260905045045 | 52 | 275 | 0.9 | 6.1 | 0.00 | 0.02 | 0.00 | 96 | 1004.0 |
| 20260905044544 | 52 | 193 | 0.9 | 3.5 | 0.00 | 0.02 | 0.00 | 96 | 1003.9 |
| 20260905044045 | 52 | 212 | 0.9 | 3.5 | 0.00 | 0.02 | 0.00 | 96 | 1003.9 |
| 20260905043546 | 52 | 240 | 0.9 | 6.1 | 0.00 | 0.02 | 0.00 | 96 | 1003.8 |
| 20260905043041 | 52 | 305 | 1.7 | 6.1 | 0.00 | 0.02 | 0.00 | 96 | 1003.7 |
| 20260905042539 | 52 | 292 | 0.9 | 3.5 | 0.00 | 0.02 | 0.00 | 96 | 1003.7 |
| 20260905042039 | 53 | 327 | 0.9 | 5.2 | 0.00 | 0.02 | 0.00 | 96 | 1003.7 |
| 20260905041539 | 53 | 273 | 1.7 | 5.2 | 0.00 | 0.02 | 0.00 | 95 | 1003.6 |
| 20260905041038 | 53 | 263 | 0.9 | 6.1 | 0.00 | 0.02 | 0.00 | 96 | 1003.6 |
| 20260905040539 | 53 | 288 | 1.7 | 9.6 | 0.00 | 0.02 | 0.00 | 95 | 1003.6 |
| 20260905040038 | 53 | 171 | 2.6 | 9.6 | 0.00 | 0.02 | 0.00 | 95 | 1003.5 |
| 20260905035536 | 53 | 269 | 1.7 | 5.2 | 0.00 | 0.02 | 0.00 | 95 | 1003.5 |
| 20260905035036 | 53 | 213 | 0.9 | 3.5 | 0.00 | 0.02 | 0.00 | 95 | 1003.5 |
| 20260905034537 | 53 | 257 | 1.7 | 3.5 | 0.00 | 0.02 | 0.00 | 95 | 1003.4 |
| 20260905034039 | 53 | 303 | 0.9 | 4.3 | 0.00 | 0.02 | 0.00 | 95 | 1003.4 |
| 20260905033534 | 53 | 18 | 0.9 | 6.1 | 0.00 | 0.02 | 0.00 | 95 | 1003.3 |
| 20260905033034 | 53 | 209 | 0.9 | 6.1 | 0.00 | 0.02 | 0.00 | 95 | 1003.3 |
| 20260905032533 | 53 | 309 | 0.9 | 6.1 | 0.00 | 0.02 | 0.00 | 95 | 1003.2 |
| 20260905032032 | 53 | 248 | 0.9 | 6.1 | 0.00 | 0.02 | 0.00 | 95 | 1003.2 |
| 20260905031535 | 53 | 262 | 1.7 | 6.1 | 0.00 | 0.02 | 0.00 | 95 | 1003.1 |
| 20260905031031 | 53 | 219 | 0.9 | 6.1 | 0.00 | 0.02 | 0.00 | 95 | 1003.1 |
| 20260905030531 | 53 | 272 | 0.9 | 6.1 | 0.00 | 0.02 | 0.00 | 95 | 1003.0 |
| 20260905030031 | 53 | 117 | 0.9 | 6.1 | 0.00 | 0.02 | 0.00 | 95 | 1002.9 |
| 20260905025530 | 54 | 268 | 0.9 | 6.1 | 0.00 | 0.02 | 0.00 | 95 | 1003.0 |
| 20260905025032 | 54 | 277 | 1.7 | 10.4 | 0.00 | 0.02 | 0.00 | 95 | 1002.9 |
| 20260905024530 | 53 | 286 | 1.7 | 10.4 | 0.00 | 0.02 | 0.00 | 95 | 1002.9 |
| 20260905024029 | 53 | 256 | 0.9 | 7.8 | 0.00 | 0.02 | 0.00 | 95 | 1002.9 |
| 20260905023529 | 53 | 263 | 1.7 | 7.8 | 0.00 | 0.02 | 0.00 | 95 | 1003.0 |
| 20260905023027 | 53 | 215 | 0.9 | 7.0 | 0.00 | 0.02 | 0.00 | 95 | 1002.9 |
| 20260905022526 | 53 | 328 | 1.7 | 7.0 | 0.00 | 0.02 | 0.00 | 95 | 1002.8 |
| 20260905022026 | 53 | 338 | 0.9 | 5.2 | 0.00 | 0.02 | 0.00 | 95 | 1002.7 |
| 20260905021536 | 53 | 226 | 1.7 | 4.3 | 0.00 | 0.02 | 0.00 | 95 | 1002.6 |
| 20260905021024 | 53 | 327 | 0.9 | 4.3 | 0.00 | 0.02 | 0.00 | 95 | 1002.6 |
| 20260905020524 | 53 | 307 | 1.7 | 5.2 | 0.00 | 0.02 | 0.00 | 95 | 1002.6 |
| 20260905020027 | 53 | 188 | 0.9 | 7.0 | 0.00 | 0.02 | 0.00 | 95 | 1002.5 |
| 20260905015523 | 53 | 272 | 1.7 | 7.0 | 0.00 | 0.02 | 0.00 | 95 | 1002.5 |
| 20260905015023 | 53 | 192 | 0.9 | 6.1 | 0.00 | 0.02 | 0.00 | 95 | 1002.5 |
| 20260905014521 | 53 | 159 | 0.9 | 8.7 | 0.00 | 0.02 | 0.00 | 95 | 1002.4 |
| 20260905014021 | 54 | 298 | 1.7 | 8.7 | 0.00 | 0.02 | 0.00 | 95 | 1002.4 |
| 20260905013524 | 54 | 198 | 1.7 | 8.7 | 0.00 | 0.02 | 0.00 | 96 | 1002.3 |
| 20260905013024 | 54 | 238 | 3.5 | 8.7 | 0.00 | 0.02 | 0.00 | 95 | 1002.3 |
| 20260905012520 | 54 | 131 | 1.7 | 5.2 | 0.00 | 0.02 | 0.00 | 96 | 1002.2 |
| 20260905012019 | 54 | 194 | 0.9 | 7.0 | 0.00 | 0.02 | 0.00 | 96 | 1002.2 |
| 20260905011519 | 54 | 284 | 2.6 | 7.0 | 0.00 | 0.02 | 0.00 | 96 | 1002.2 |
| 20260905011019 | 54 | 275 | 0.9 | 7.0 | 0.00 | 0.02 | 0.00 | 96 | 1002.2 |
| 20260905010518 | 54 | 192 | 1.7 | 7.0 | 0.00 | 0.02 | 0.00 | 96 | 1002.1 |
| 20260905010023 | 54 | 277 | 1.7 | 7.8 | 0.00 | 0.02 | 0.00 | 96 | 1002.2 |
| 20260905005516 | 54 | 172 | 0.9 | 7.8 | 0.00 | 0.02 | 0.00 | 96 | 1002.1 |
| 20260905005017 | 54 | 286 | 0.9 | 6.1 | 0.00 | 0.02 | 0.00 | 96 | 1002.1 |
| 20260905004515 | 54 | 296 | 0.9 | 8.7 | 0.00 | 0.02 | 0.00 | 96 | 1002.0 |
| 20260905004015 | 54 | 190 | 2.6 | 8.7 | 0.00 | 0.02 | 0.00 | 96 | 1001.9 |
| 20260905003517 | 54 | 258 | 1.7 | 7.0 | 0.00 | 0.02 | 0.00 | 96 | 1001.9 |
| 20260905003015 | 54 | 305 | 1.7 | 6.1 | 0.00 | 0.02 | 0.00 | 96 | 1001.9 |
| 20260905002512 | 54 | 323 | 1.7 | 6.1 | 0.00 | 0.02 | 0.00 | 96 | 1001.8 |
| 20260905002013 | 54 | 294 | 1.7 | 7.0 | 0.00 | 0.02 | 0.00 | 96 | 1001.8 |
| 20260905001512 | 54 | 300 | 1.7 | 7.0 | 0.00 | 0.02 | 0.00 | 96 | 1001.7 |
| 20260905001011 | 54 | 139 | 0.9 | 4.3 | 0.00 | 0.02 | 0.00 | 96 | 1001.7 |
| 20260905000511 | 54 | 270 | 1.7 | 7.8 | 0.00 | 0.02 | 0.00 | 96 | 1001.6 |
| 20260905000014 | 54 | 286 | 1.7 | 7.8 | 0.00 | 0.02 | 0.00 | 96 | 1001.6 |
| 20260904235510 | 54 | 236 | 1.7 | 6.1 | 0.00 | 0.02 | 0.00 | 96 | 1001.6 |
| 20260904235009 | 54 | 174 | 0.9 | 6.1 | 0.00 | 0.02 | 0.00 | 96 | 1001.5 |
| 20260904234508 | 54 | 136 | 0.9 | 4.3 | 0.00 | 0.02 | 0.00 | 96 | 1001.5 |
| 20260904234009 | 54 | 205 | 0.0 | 5.2 | 0.00 | 0.02 | 0.00 | 96 | 1001.4 |
| 20260904233508 | 54 | 314 | 0.9 | 7.0 | 0.00 | 0.02 | 0.00 | 96 | 1001.4 |
| 20260904233008 | 54 | 225 | 1.7 | 7.0 | 0.00 | 0.02 | 0.00 | 96 | 1001.3 |
| 20260904232506 | 54 | 200 | 0.9 | 7.0 | 0.00 | 0.02 | 0.00 | 96 | 1001.4 |
| 20260904232008 | 54 | 252 | 1.7 | 7.8 | 0.00 | 0.02 | 0.00 | 96 | 1001.3 |
| 20260904231506 | 54 | 320 | 0.0 | 4.3 | 0.00 | 0.02 | 0.00 | 95 | 1001.3 |
| 20260904231005 | 54 | 299 | 0.9 | 7.0 | 0.00 | 0.02 | 0.00 | 95 | 1001.3 |
| 20260904230506 | 54 | 221 | 0.9 | 3.5 | 0.00 | 0.02 | 0.00 | 95 | 1001.3 |
| 20260904230005 | 54 | 299 | 0.9 | 3.5 | 0.00 | 0.02 | 0.00 | 95 | 1001.3 |
| 20260904225503 | 54 | 226 | 0.0 | 2.6 | 0.00 | 0.02 | 0.00 | 95 | 1001.2 |
| 20260904225006 | 54 | 265 | 0.0 | 3.5 | 0.00 | 0.02 | 0.00 | 95 | 1001.2 |
| 20260904224503 | 54 | 257 | 0.0 | 4.3 | 0.00 | 0.02 | 0.00 | 95 | 1001.2 |
| 20260904224003 | 54 | 287 | 0.9 | 4.3 | 0.00 | 0.02 | 0.00 | 95 | 1001.1 |
| 20260904223502 | 54 | 228 | 0.9 | 3.5 | 0.00 | 0.02 | 0.00 | 95 | 1001.0 |
| 20260904223002 | 54 | 197 | 0.9 | 2.6 | 0.00 | 0.02 | 0.00 | 95 | 1000.9 |
| 20260904222503 | 54 | 244 | 0.0 | 5.2 | 0.00 | 0.02 | 0.00 | 95 | 1000.9 |
| 20260904222100 | 54 | 193 | 1.7 | 6.1 | 0.00 | 0.02 | 0.00 | 95 | 1001.0 |
| 20260904221604 | 54 | 284 | 1.7 | 3.5 | 0.00 | 0.02 | 0.00 | 95 | 1001.0 |
| 20260904221100 | 54 | 248 | 0.9 | 5.2 | 0.00 | 0.02 | 0.00 | 95 | 1000.9 |
| 20260904220600 | 54 | 216 | 1.7 | 4.3 | 0.00 | 0.02 | 0.00 | 95 | 1001.0 |
| 20260904220110 | 54 | 243 | 0.9 | 6.1 | 0.00 | 0.02 | 0.00 | 95 | 1000.9 |
| 20260904215600 | 54 | 214 | 1.7 | 6.1 | 0.00 | 0.02 | 0.02 | 95 | 1000.9 |
| 20260904215101 | 54 | 196 | 1.7 | 4.3 | 0.00 | 0.02 | 0.02 | 95 | 1000.8 |
| 20260904214558 | 54 | 252 | 0.0 | 7.8 | 0.00 | 0.02 | 0.02 | 95 | 1000.9 |
| 20260904214058 | 54 | 252 | 1.7 | 7.8 | 0.00 | 0.02 | 0.02 | 95 | 1000.8 |
| 20260904213557 | 54 | 118 | 1.7 | 7.0 | 0.00 | 0.02 | 0.02 | 95 | 1000.7 |
| 20260904213101 | 54 | 238 | 0.9 | 5.2 | 0.00 | 0.02 | 0.02 | 95 | 1000.6 |
| 20260904212556 | 54 | 281 | 1.7 | 7.0 | 0.00 | 0.02 | 0.02 | 95 | 1000.6 |
| 20260904212055 | 54 | 265 | 1.7 | 7.0 | 0.00 | 0.02 | 0.02 | 95 | 1000.5 |
| 20260904211557 | 54 | 190 | 1.7 | 7.0 | 0.00 | 0.02 | 0.02 | 95 | 1000.4 |
| 20260904211054 | 54 | 185 | 0.9 | 7.0 | 0.00 | 0.02 | 0.02 | 95 | 1000.4 |
| 20260904210554 | 54 | 249 | 1.7 | 7.0 | 0.00 | 0.02 | 0.02 | 95 | 1000.3 |
| 20260904210059 | 54 | 198 | 1.7 | 8.7 | 0.00 | 0.02 | 0.02 | 95 | 1000.3 |
| 20260904205553 | 54 | 294 | 2.6 | 8.7 | 0.00 | 0.03 | 0.02 | 95 | 1000.2 |
| 20260904205052 | 54 | 288 | 1.7 | 7.8 | 0.00 | 0.03 | 0.02 | 95 | 1000.1 |
| 20260904204553 | 55 | 244 | 1.7 | 6.1 | 0.00 | 0.03 | 0.02 | 95 | 1000.1 |
| 20260904204051 | 55 | 345 | 2.6 | 9.6 | 0.00 | 0.03 | 0.02 | 95 | 1000.0 |
| 20260904203554 | 55 | 134 | 3.5 | 9.6 | 0.00 | 0.03 | 0.02 | 95 | 999.9 |
| 20260904203051 | 55 | 294 | 0.9 | 6.1 | 0.00 | 0.03 | 0.02 | 95 | 999.9 |
| 20260904202550 | 55 | 301 | 1.7 | 7.8 | 0.00 | 0.03 | 0.02 | 95 | 999.9 |
| 20260904202049 | 55 | 290 | 1.7 | 7.8 | 0.00 | 0.03 | 0.02 | 95 | 999.9 |
| 20260904201552 | 55 | 329 | 1.7 | 8.7 | 0.00 | 0.03 | 0.02 | 95 | 999.8 |
| 20260904201048 | 55 | 171 | 1.7 | 8.7 | 0.00 | 0.03 | 0.02 | 95 | 999.6 |
| 20260904200548 | 55 | 240 | 1.7 | 7.0 | 0.00 | 0.03 | 0.02 | 95 | 999.6 |
| 20260904200109 | 55 | 247 | 1.7 | 8.7 | 0.00 | 0.03 | 0.02 | 95 | 999.6 |
| 20260904195546 | 56 | 159 | 1.7 | 9.6 | 0.00 | 0.03 | 0.02 | 95 | 999.7 |
| 20260904195049 | 56 | 325 | 3.5 | 9.6 | 0.00 | 0.03 | 0.02 | 95 | 999.6 |
| 20260904194628 | 56 | 209 | 2.6 | 7.8 | 0.00 | 0.03 | 0.02 | 95 | 999.5 |
| 20260904194045 | 56 | 342 | 1.7 | 8.7 | 0.01 | 0.03 | 0.02 | 95 | 999.5 |
| 20260904193545 | 56 | 294 | 1.7 | 9.6 | 0.01 | 0.03 | 0.02 | 95 | 999.5 |
| 20260904193045 | 56 | 259 | 1.7 | 11.3 | 0.01 | 0.03 | 0.02 | 95 | 999.5 |
| 20260904192544 | 56 | 355 | 2.6 | 11.3 | 0.01 | 0.03 | 0.02 | 95 | 999.6 |
| 20260904192045 | 56 | 290 | 1.7 | 7.8 | 0.01 | 0.03 | 0.02 | 95 | 999.5 |
| 20260904191544 | 57 | 202 | 1.7 | 8.7 | 0.01 | 0.03 | 0.02 | 95 | 999.5 |
| 20260904191044 | 57 | 298 | 2.6 | 8.7 | 0.01 | 0.03 | 0.02 | 96 | 999.5 |
| 20260904190544 | 57 | 302 | 0.9 | 7.8 | 0.01 | 0.03 | 0.02 | 96 | 999.4 |
| 20260904190047 | 57 | 332 | 0.9 | 5.2 | 0.01 | 0.03 | 0.02 | 96 | 999.4 |
| 20260904185543 | 57 | 292 | 1.7 | 4.3 | 0.01 | 0.03 | 0.02 | 95 | 999.3 |
| 20260904185043 | 57 | 298 | 0.0 | 2.6 | 0.01 | 0.03 | 0.02 | 95 | 999.2 |
| 20260904184551 | 57 | 213 | 0.0 | 3.5 | 0.01 | 0.03 | 0.02 | 95 | 999.1 |
| 20260904184043 | 57 | 163 | 0.9 | 3.5 | 0.00 | 0.02 | 0.02 | 95 | 999.1 |
| 20260904183544 | 57 | 209 | 0.0 | 2.6 | 0.00 | 0.02 | 0.02 | 95 | 999.0 |
| 20260904183043 | 57 | 257 | 0.0 | 3.5 | 0.00 | 0.02 | 0.02 | 95 | 999.0 |
| 20260904182541 | 57 | 190 | 0.9 | 4.3 | 0.00 | 0.02 | 0.02 | 95 | 999.0 |
| 20260904182041 | 57 | 265 | 0.9 | 4.3 | 0.00 | 0.02 | 0.02 | 94 | 999.0 |
| 20260904181550 | 58 | 315 | 0.9 | 5.2 | 0.00 | 0.02 | 0.02 | 94 | 999.1 |
| 20260904181042 | 58 | 246 | 0.9 | 5.2 | 0.00 | 0.02 | 0.02 | 94 | 999.1 |
| 20260904180541 | 58 | 248 | 0.9 | 4.3 | 0.00 | 0.02 | 0.02 | 94 | 999.0 |
| 20260904180043 | 58 | 241 | 0.9 | 4.3 | 0.00 | 0.02 | 0.02 | 94 | 999.1 |
| 20260904175544 | 58 | 349 | 0.0 | 4.3 | 0.00 | 0.02 | 0.02 | 93 | 999.0 |
| 20260904175041 | 58 | 175 | 0.9 | 9.6 | 0.00 | 0.02 | 0.02 | 93 | 999.1 |
| 20260904174541 | 59 | 235 | 2.6 | 9.6 | 0.00 | 0.02 | 0.02 | 92 | 999.1 |
| 20260904174041 | 59 | 198 | 0.9 | 7.8 | 0.00 | 0.02 | 0.02 | 92 | 999.1 |
| 20260904173540 | 59 | 279 | 0.9 | 7.0 | 0.00 | 0.02 | 0.02 | 91 | 999.1 |
| 20260904173058 | 59 | 184 | 0.0 | 5.2 | 0.00 | 0.02 | 0.02 | 90 | 999.0 |
| 20260904172539 | 59 | 190 | 1.7 | 7.0 | 0.00 | 0.02 | 0.02 | 90 | 998.9 |
| 20260904172040 | 60 | 284 | 1.7 | 7.8 | 0.00 | 0.02 | 0.02 | 89 | 998.8 |
| 20260904171542 | 60 | 196 | 0.0 | 8.7 | 0.00 | 0.02 | 0.02 | 88 | 998.6 |
| 20260904171038 | 60 | 285 | 0.9 | 6.1 | 0.00 | 0.02 | 0.02 | 88 | 998.6 |
| 20260904170538 | 60 | 300 | 0.9 | 11.3 | 0.00 | 0.02 | 0.02 | 88 | 998.6 |
| 20260904170041 | 61 | 214 | 1.7 | 5.2 | 0.00 | 0.02 | 0.02 | 88 | 998.6 |
| 20260904165541 | 61 | 263 | 0.0 | 2.6 | 0.00 | 0.02 | 0.02 | 88 | 998.5 |
| 20260904165039 | 61 | 254 | 0.0 | 4.3 | 0.00 | 0.02 | 0.02 | 88 | 998.5 |
| 20260904164538 | 62 | 273 | 0.9 | 4.3 | 0.00 | 0.02 | 0.02 | 88 | 998.5 |
| 20260904164037 | 62 | 38 | 0.9 | 5.2 | 0.00 | 0.02 | 0.02 | 89 | 998.6 |
| 20260904163537 | 62 | 250 | 0.0 | 1.7 | 0.00 | 0.02 | 0.02 | 89 | 998.6 |